This is the latest recevied weather packets stored in our database for station/object EA3ANS-1. If no packets are shown the sender has not sent any weather packets the latest 10 day(s).
| Time | Temp. | Humidity | Pressure | Rain* | Wind** | Luminosity | Snow |
|---|---|---|---|---|---|---|---|
| 1777416030 | 16.67° C | - | 1012.9 hPa | 0 mm | 0.89 m/s, 89° | - | - |
| 1777415432 | 16.67° C | - | 1012.6 hPa | 0 mm | 0.45 m/s, 183° | - | - |
| 1777414829 | 16.11° C | - | 1012.7 hPa | 0 mm | 0 m/s | - | - |
| 1777414225 | 16.11° C | - | 1012.6 hPa | 0 mm | 0.89 m/s, 77° | - | - |
| 1777413628 | 16.67° C | - | 1012.5 hPa | 0 mm | 1.34 m/s, 170° | - | - |
| 1777413030 | 16.67° C | - | 1012.3 hPa | 0 mm | 0 m/s | - | - |
| 1777412425 | 16.67° C | - | 1012 hPa | 0 mm | 1.34 m/s, 65° | - | - |
| 1777411827 | 16.67° C | - | 1011.8 hPa | 0 mm | 0.89 m/s, 101° | - | - |
| 1777411230 | 17.22° C | - | 1011.6 hPa | 0 mm | 0.45 m/s, 80° | - | - |
| 1777410624 | 16.67° C | - | 1011.7 hPa | 0 mm | 0.45 m/s, 41° | - | - |
| 1777410027 | 17.22° C | - | 1011.7 hPa | 0 mm | 0.89 m/s, 94° | - | - |
| 1777409429 | 17.22° C | - | 1011.7 hPa | 0 mm | 0.89 m/s, 141° | - | - |
| 1777408824 | 17.78° C | - | 1011.5 hPa | 0 mm | 0.89 m/s, 97° | - | - |
| 1777408226 | 17.78° C | - | 1011.5 hPa | 0 mm | 1.34 m/s, 107° | - | - |
| 1777407629 | 17.78° C | - | 1011.4 hPa | 0 mm | 0 m/s | - | - |
| 1777407030 | 17.78° C | - | 1011.1 hPa | 0 mm | 0.45 m/s, 41° | - | - |
| 1777406427 | 17.78° C | - | 1011.1 hPa | 0 mm | 0 m/s | - | - |
| 1777405829 | 17.78° C | - | 1010.9 hPa | 0 mm | 1.34 m/s, 104° | - | - |
| 1777405225 | 18.33° C | - | 1010.8 hPa | 0 mm | 1.79 m/s, 166° | - | - |
| 1777404627 | 18.33° C | - | 1010.7 hPa | 0 mm | 1.34 m/s, 135° | - | - |
| 1777404030 | 18.33° C | - | 1010.7 hPa | 0 mm | 0.45 m/s, 160° | - | - |
| 1777403429 | 18.33° C | - | 1010.5 hPa | 0 mm | 1.79 m/s, 138° | - | - |
| 1777402831 | 18.89° C | - | 1010.4 hPa | 0 mm | 1.34 m/s, 117° | - | - |
| 1777402227 | 19.44° C | - | 1010.4 hPa | 0 mm | 1.79 m/s, 124° | - | - |
| 1777401623 | 19.44° C | - | 1010.3 hPa | 0 mm | 1.79 m/s, 146° | - | - |
* Rain latest hour (hover to see other rain measurements)
** Current wind speed in m/s (hover to see current wind gust speed)